This is the latest recevied weather packets stored in our database for station/object W0AKO. If no packets are shown the sender has not sent any weather packets the latest 10 day(s).
| Time | Temp. | Humidity | Pressure | Rain* | Wind** | Luminosity | Snow |
|---|---|---|---|---|---|---|---|
| 1777913261 | 22.78° C | 10% | 1012 hPa | 0 mm | - | 384 W/m² | - |
| 1777912959 | 21.67° C | 10% | 1011.7 hPa | 0 mm | - | 347 W/m² | - |
| 1777912654 | 21.11° C | 10% | 1011.7 hPa | 0 mm | - | 335 W/m² | - |
| 1777912350 | 21.11° C | 10% | 1011.9 hPa | 0 mm | - | 409 W/m² | - |
| 1777912047 | 21.11° C | 10% | 1011.9 hPa | 0 mm | - | 461 W/m² | - |
| 1777911743 | 20.56° C | 10% | 1012.1 hPa | 0 mm | - | 340 W/m² | - |
| 1777911440 | 20.56° C | 10% | 1012.1 hPa | 0 mm | - | 321 W/m² | - |
| 1777911136 | 20.56° C | 10% | 1012.1 hPa | 0 mm | - | 250 W/m² | - |
| 1777910834 | 20.56° C | 10% | 1012.2 hPa | 0 mm | - | 223 W/m² | - |
| 1777910531 | 20.56° C | 10% | 1012.3 hPa | 0 mm | - | 329 W/m² | - |
| 1777910228 | 20° C | 10% | 1012.3 hPa | 0 mm | - | 277 W/m² | - |
| 1777909925 | 20° C | 10% | 1012.5 hPa | 0 mm | - | 210 W/m² | - |
| 1777909621 | 20° C | 10% | 1012 hPa | 0 mm | - | 187 W/m² | - |
| 1777909319 | 20° C | 10% | 1011.9 hPa | 0 mm | - | 174 W/m² | - |
| 1777909016 | 19.44° C | 10% | 1012 hPa | 0 mm | - | 176 W/m² | - |
| 1777908714 | 19.44° C | 10% | 1012.2 hPa | 0 mm | - | 159 W/m² | - |
| 1777908411 | 19.44° C | 10% | 1012 hPa | 0 mm | - | 202 W/m² | - |
| 1777908108 | 19.44° C | 10% | 1012.1 hPa | 0 mm | - | 231 W/m² | - |
| 1777907804 | 19.44° C | 10% | 1012.1 hPa | 0 mm | - | 182 W/m² | - |
| 1777907499 | 19.44° C | 10% | 1012.2 hPa | 0 mm | - | 126 W/m² | - |
| 1777907196 | 18.89° C | 10% | 1012.2 hPa | 0 mm | - | 161 W/m² | - |
| 1777906893 | 18.89° C | 10% | 1012.1 hPa | 0 mm | - | 122 W/m² | - |
| 1777906590 | 18.89° C | 10% | 1012 hPa | 0 mm | - | 98 W/m² | - |
| 1777906286 | 19.44° C | 10% | 1012.1 hPa | 0 mm | - | 111 W/m² | - |
| 1777905982 | 19.44° C | 10% | 1012 hPa | 0 mm | - | 164 W/m² | - |
* Rain latest hour (hover to see other rain measurements)
** Current wind speed in m/s (hover to see current wind gust speed)